Weather History for Cedar Rapids, IA

Change the Weather History Date:

Thursday, October 3, 2013

  Actual Average Record
Temperature  
Mean Temperature 72 °F 55 °F  
Max Temperature 80 °F 67 °F 94 °F (1997)
Min Temperature 63 °F 44 °F 28 °F (1987)
Degree Days  
Heating Degree Days 0 10  
Month to date heating degree days 0 30  
Since 1 July heating degree days 99 187  
Cooling Degree Days 7 1  
Month to date cooling degree days 14 3  
Year to date cooling degree days 879 743  
Growing Degree Days 22 (Base 50)    
Moisture  
Dew Point 63 °F    
Average Humidity 76    
Maximum Humidity 100    
Minimum Humidity 52    
Precipitation  
Precipitation T in 0.10 in 1.12 in (1990)
Month to date precipitation T 0.30  
Year to date precipitation 31.59 28.76  
Sea Level Pressure  
Sea Level Pressure 29.83 in    
Wind  
Wind Speed 7 mph (South)    
Max Wind Speed 16 mph    
Max Gust Speed 22 mph    
Visibility 9 miles    
Events Rain , Thunderstorm    
T = Trace of Precipitation, MM = Missing Value Source: NWS Daily Summary

Daily Weather History Graph

Daily Weather History Graph

Search for Another Location

Airport:

Trip Planner

Search our weather history database for the weather conditions in past years. The results will help you decide how hot, cold, wet, or windy it might be!

Date:

Astronomy

Oct. 03, 2013 Rise Set
Actual Time 7:06 AM CDT 6:44 PM CDT
Civil Twilight 6:38 AM CDT 7:12 PM CDT
Nautical Twilight 6:06 AM CDT 7:44 PM CDT
Astronomical Twilight 5:33 AM CDT 8:17 PM CDT
Moon 5:39 AM CDT (10/3) 5:53 PM CDT (10/3)
Length of Visible Light 12h 34m
Length of Day
11h 38m
Waning Crescent, 2% of the Moon is Illuminated
Oct 3
Waning Crescent
Oct 4
New
Oct 11
First Quarter
Oct 18
Full
Oct 26
Last Quarter

Hourly Weather History & Observations

Time (CDT) Temp. Dew Point Humidity Pressure Visibility Wind Dir Wind Speed Gust Speed Precip Events Conditions
12:52 AM 66.0 °F 59.0 °F 78% 29.87 in 10.0 mi South 5.8 mph - N/A   Clear
1:52 AM 64.9 °F 60.1 °F 84% 29.88 in 10.0 mi SSE 4.6 mph - N/A   Clear
2:52 AM 64.9 °F 60.1 °F 84% 29.86 in 9.0 mi SSE 5.8 mph - N/A   Clear
3:52 AM 64.0 °F 61.0 °F 90% 29.87 in 8.0 mi SSE 3.5 mph - N/A   Clear
4:52 AM 64.0 °F 62.1 °F 93% 29.86 in 6.0 mi SE 3.5 mph - N/A   Clear
5:52 AM 64.0 °F 62.1 °F 93% 29.86 in 5.0 mi SSE 5.8 mph - N/A   Clear
6:52 AM 64.0 °F 63.0 °F 96% 29.85 in 4.0 mi South 4.6 mph - N/A   Clear
7:52 AM 64.9 °F 64.0 °F 97% 29.84 in 3.0 mi SSE 5.8 mph - N/A   Mostly Cloudy
8:26 AM 68.0 °F 66.2 °F 94% 29.86 in 6.0 mi SSE 6.9 mph - N/A   Mostly Cloudy
8:31 AM 68.0 °F 66.2 °F 94% 29.86 in 6.0 mi South 10.4 mph - N/A   Mostly Cloudy
8:52 AM 69.1 °F 66.0 °F 90% 29.84 in 7.0 mi South 6.9 mph - N/A   Overcast
9:52 AM 71.1 °F 66.9 °F 87% 29.85 in 8.0 mi South 11.5 mph - N/A   Overcast
10:52 AM 73.9 °F 66.0 °F 76% 29.84 in 10.0 mi South 11.5 mph 18.4 mph N/A   Mostly Cloudy
11:09 AM 73.4 °F 66.2 °F 78% 29.84 in 10.0 mi South 10.4 mph 19.6 mph 0.00 in Rain Light Rain
11:52 AM 75.0 °F 66.0 °F 73% 29.81 in 10.0 mi South 10.4 mph 18.4 mph 0.00 in   Scattered Clouds
12:52 PM 75.9 °F 61.0 °F 60% 29.82 in 10.0 mi South 11.5 mph - N/A   Mostly Cloudy
1:05 PM 75.2 °F 62.6 °F 65% 29.83 in 10.0 mi SSW 12.7 mph - N/A   Mostly Cloudy
1:26 PM 73.4 °F 62.6 °F 69% 29.82 in 10.0 mi SSW 10.4 mph - N/A   Scattered Clouds
1:52 PM 75.9 °F 57.9 °F 54% 29.79 in 10.0 mi South 11.5 mph - N/A   Partly Cloudy
2:52 PM 78.1 °F 59.0 °F 52% 29.79 in 10.0 mi Variable 6.9 mph - N/A   Mostly Cloudy
3:52 PM 78.1 °F 64.0 °F 62% 29.78 in 10.0 mi South 6.9 mph - N/A   Clear
4:52 PM 79.0 °F 64.0 °F 60% 29.78 in 10.0 mi South 5.8 mph - N/A   Clear
5:52 PM 78.1 °F 66.0 °F 66% 29.78 in 10.0 mi South 5.8 mph - N/A   Mostly Cloudy
6:52 PM 75.0 °F 66.0 °F 73% 29.78 in 10.0 mi SSE 4.6 mph - N/A   Overcast
7:52 PM 73.9 °F 64.9 °F 73% 29.81 in 10.0 mi SSE 5.8 mph - N/A   Overcast
8:25 PM 73.4 °F 62.6 °F 69% 29.84 in 10.0 mi South 4.6 mph - N/A Thunderstorm Overcast
8:52 PM 71.1 °F 62.1 °F 73% 29.82 in 10.0 mi South 5.8 mph - N/A   Scattered Clouds
9:52 PM 69.1 °F 62.1 °F 78% 29.83 in 10.0 mi SSE 5.8 mph - N/A   Scattered Clouds
11:52 PM 68.0 °F 62.1 °F 81% 29.84 in 10.0 mi SSE 4.6 mph - 0.00 in   Scattered Clouds